Weather Roundup
Issued by NWS Chicago, IL

Home | Current Version | Previous Version | Text Only | Print | Product List | Glossary Off
Versions: 1 2 3 4 5 6 7 8 9 10 11 12 13 14 15 16 17 18 19 20 21 22 23 24 25 26 27 28 29 30 31 32 33 34 35 36 37 38 39 40 41 42 43 44 45 46 47 48 49 50

000
NZUS59 KLOT 271310
HRRLOT

CHICAGO AREA WEATHER ROUNDUP
NATIONAL WEATHER SERVICE CHICAGO/ROMEOVILLE IL
800 AM CDT WED AUG 27 2014

NOTE: "FAIR" INDICATES FEW OR NO CLOUDS BELOW 12,000 FEET WITH NO
SIGNIFICANT WEATHER AND/OR OBSTRUCTIONS TO VISIBILITY.

* THESE STATIONS ARE NOT UNDER NWS QUALITY CONTROL. THEY ALSO MAY NOT
  REPORT WEATHER SUCH AS PRECIPITATION OR FOG.

ILZ005-006-012>014-019>023-271400-
NORTHEAST ILLINOIS

CITY           SKY/WX    TMP DP  RH WIND       PRES   REMARKS
OHARE          MOSUNNY   71  61  70 NE6       30.14S
MIDWAY         MOSUNNY   74  64  71 NE7       30.14R
AURORA         SUNNY     69  62  78 N7        30.15R
LANSING*       SUNNY     70  63  78 E5        30.15R
JOLIET*        SUNNY     71  64  81 E3        30.15R
WAUKEGAN       MOSUNNY   67  61  81 VRB3      30.14S
DUPAGE AIRPORT SUNNY     70  63  78 N3        30.14S
WHEELING       MOSUNNY   70  63  78 N3        30.16S
KANKAKEE*      CLOUDY    71  64  79 NE7       30.14R
MORRIS*        SUNNY     71  68  90 NE3       30.14R
LEWIS AIRPORT* SUNNY     71  64  79 E7        30.14R
NORTHERLY IS     N/A     72  63  73 N7          N/A
$$

WIZ051-052-058>065-066-070>072-271400-
SOUTHEAST WISCONSIN

CITY           SKY/WX    TMP DP  RH WIND       PRES   REMARKS
MILWAUKEE      MOSUNNY   67  60  78 N3        30.15F
KENOSHA*       SUNNY     66  60  81 N6        30.16S
RACINE*        SUNNY     67  61  81 N5        30.17S
BURLINGTON     SUNNY     63  59  86 CALM      30.16S
WAUKESHA       MOSUNNY   63  57  82 NE3       30.17F
WEST BEND      CLOUDY    61  57  88 NE3       30.16F
$$

INZ001>003-010>013-019-020-271400-
NORTHWEST INDIANA

CITY           SKY/WX    TMP DP  RH WIND       PRES   REMARKS
GARY*          MOSUNNY   72  63  73 NE6       30.15R
MICHIGAN CITY* NOT AVBL
RENSSELAER*    NOT AVBL
VALPARAISO     SUNNY     69  62  78 NE3       30.15R
$$

LMZ740>746-271400-
SOUTHERN LAKE MICHIGAN

STATION/POSITION TIME  SKY/WX   TEMP WIND        PRES    VSBY
                                AIR  DIR/SP/G
                 (UTC)          (F)  (DEG/KT/KT) (MB)    (MI)
HARRISON CRIB    1300            70   30/  8/ 10   N/A
BURNHAM HARBOR   1300            72   30/  7/  7   N/A
CALUMET HARBOR   1300            71   30/  5/  7 1019.3F
BURNS HARBOR     NOT AVBL
MICHIGAN CITY    1300            69   30/  9/ 11   N/A
$$

ABBREVIATIONS USED IN REMARKS
   TC - TEMPERATURE IN CELSIUS
  WCI - WIND CHILL INDEX
   HX - HEAT INDEX
  VSB - VISIBILITY
$$



USA.gov is the U.S. government's official web portal to all federal, state and local government web resources and services.